This is the latest recevied weather packets stored in our database for station/object HB9BTL-13. If no packets are shown the sender has not sent any weather packets the latest 10 day(s).
| Time | Temp. | Humidity | Pressure | Rain* | Wind** | Luminosity | Snow |
|---|---|---|---|---|---|---|---|
| 1777904878 | 20.56° C | 56% | 1012.6 hPa | - | - | - | - |
| 1777903972 | 20.56° C | 55% | 1012.5 hPa | - | - | - | - |
| 1777903067 | 20.56° C | 56% | 1012.5 hPa | - | - | - | - |
| 1777902161 | 21.11° C | 53% | 1012.4 hPa | - | - | - | - |
| 1777901256 | 21.11° C | 48% | 1012.5 hPa | - | - | - | - |
| 1777900351 | 21.67° C | 51% | 1012.5 hPa | - | - | - | - |
| 1777899445 | 21.11° C | 50% | 1012.5 hPa | - | - | - | - |
| 1777898540 | 21.11° C | 49% | 1012.4 hPa | - | - | - | - |
| 1777897634 | 21.11° C | 48% | 1012.6 hPa | - | - | - | - |
| 1777896729 | 21.11° C | 52% | 1012.7 hPa | - | - | - | - |
| 1777895823 | 21.11° C | 50% | 1012.8 hPa | - | - | - | - |
| 1777894918 | 21.11° C | 52% | 1012.7 hPa | - | - | - | - |
| 1777894013 | 20.56° C | 50% | 1012.9 hPa | - | - | - | - |
| 1777893107 | 20° C | 55% | 1012.9 hPa | - | - | - | - |
| 1777892202 | 19.44° C | 61% | 1013 hPa | - | - | - | - |
| 1777891296 | 19.44° C | 64% | 1013.4 hPa | - | - | - | - |
| 1777890391 | 19.44° C | 66% | 1013.6 hPa | - | - | - | - |
| 1777889486 | 19.44° C | 65% | 1013.9 hPa | - | - | - | - |
| 1777888581 | 19.44° C | 70% | 1014.1 hPa | - | - | - | - |
| 1777887675 | 18.89° C | 71% | 1014.3 hPa | - | - | - | - |
| 1777886770 | 18.33° C | 72% | 1014.3 hPa | - | - | - | - |
| 1777885864 | 17.78° C | 84% | 1014.5 hPa | - | - | - | - |
| 1777884959 | 17.78° C | 89% | 1014.6 hPa | - | - | - | - |
| 1777884053 | 17.22° C | 90% | 1014.8 hPa | - | - | - | - |
| 1777883148 | 17.22° C | 91% | 1014.9 hPa | - | - | - | - |
* Rain since midnight (hover to see other rain measurements)
** Current wind speed in m/s (hover to see current wind gust speed)